Tracking 33195 objects as of 8-Feb-2026
HD Live streaming from Space Station
objects crossing your sky now

OBJECT B

Track OBJECT B now!
10-day predictions


NORAD ID: 66914
Int'l Code: 2025-285B
Perigee: 902.5 km
Apogee: 918.2 km
Inclination: 80.4 °
Period: 103.1 minutes
Semi major axis: 7281 km
RCS: Unknown
Launch date: December 6, 2025
Source: People's Republic of China (PRC)
Launch site: Jiuquan Satellite Launch Center, China (JSC)
Your satellite tracking list
Your tracking list is empty




NASA's NSSDC Master Catalog

Two Line Element Set (TLE):
1 66914U 25284B   26038.87105222  .00000179  00000-0  12102-3 0  9999
2 66914  80.3953  64.2638 0010744 220.9306 139.1050 13.97286038  9424
Source of the keplerian elements: AFSPC